View from above orbital plane
|
View from above satellite
|
Ground track
|
The orbit data is extracted from the following two-line orbital elements,
1 25725U 99023B 21060.98391190 -.00000082 00000-0 -22007-3 0 9999
2 25725 28.3113 164.1578 2386673 71.9744 312.4900 9.67255939 69762
Epoch (UTC): | 01 March 2021 23:36:49 |
Eccentricity: | 0.2386673 |
inclination: | 28.3113° |
perigee height: | 706 km |
apogee height: | 5147 km |
right ascension of ascending node: | 164.1578° |
argument of perigee: | 71.9744° |
revolutions per day: | 9.67255939 |
mean anomaly at epoch: | 312.4900° |
orbit number at epoch: | 6976 |
The dashed part of the orbit path shows where the satellite is in the earth's shadow,
|
|